Orbital Elements at Epoch 2459000.5 (2020-May-31.0) TDB
Reference: JPL 18 (heliocentric ecliptic J2000)
Element | Value | Uncertainty (1-sigma) | Units |
e | .1487055445038137 | 5.8941e-08 | |
a | 2.568011489087088 | 1.4204e-08 | au |
q | 2.186133942310343 | 1.543e-07 | au |
i | 7.15847086724411 | 4.2364e-06 | deg |
node | 91.51921037606242 | 5.024e-05 | deg |
peri | 227.458694859055 | 5.3071e-05 | deg |
M | 69.39405745020828 | 1.6229e-05 | deg |
tp | 2458710.756533979939 (2019-Aug-15.25653398) | 6.8026e-05 | TDB |
period | 1503.120751255467 4.12 | 1.2471e-05 3.414e-08 | d yr |
n | .239501716478409 | 1.9871e-09 | deg/d |
Q | 2.949889035863832 | 1.6317e-08 | au |
|
| | Orbit Determination Parameters
Additional Information
|